Regional Weather Roundup
Issued by NWS

Home | Current Version | Previous Version | Text Only | Print | Product List | Glossary Off
Versions: 1 2 3 4 5 6 7 8 9 10 11 12 13 14 15 16 17 18 19 20 21 22 23 24 25 26 27 28 29 30 31 32 33 34 35 36 37 38 39 40 41 42 43 44 45 46 47 48 49 50

000
ASUS45 KBOU 190007
RWRCO

WEATHER ROUNDUP FOR COLORADO
NATIONAL WEATHER SERVICE DENVER/BOULDER CO
600 PM MDT SAT APR 18 2015

NOTE: "FAIR" INDICATES FEW OR NO CLOUDS BELOW 12000 FEET WITH NO
SIGNIFICANT WEATHER AND/OR OBSTRUCTIONS TO VISIBILITY.

COZ001>005-013-030-031-190100-
...NORTHWEST COLORADO...

CITY           SKY/WX    TMP DP  RH WIND       PRES   REMARKS
CRAIG          LGT RAIN  36  33  89 SE7       30.02R FOG
HAYDEN         CLOUDY    32  30  93 W6        30.02R VSB 3/4 WCI  26
MEEKER         CLOUDY    39  33  79 N9        30.03R
MOUNT WERNER   NOT AVBL
STEAMBOAT SPGS CLOUDY    32  32  99 CALM      30.01R VSB 1/2
WALDEN         CLOUDY    32  28  86 N14G23    29.98R WCI  22
$$

COZ006>008-011-190100-
...WEST CENTRAL VALLEYS...

CITY           SKY/WX    TMP DP  RH WIND       PRES   REMARKS
GRAND JUNCTION CLOUDY    46  40  79 SE12      30.01R
MONTROSE       RAIN      41  37  86 NW5       30.06R FOG
EAGLE          CLOUDY    39  36  87 CALM      30.01R
RIFLE          CLOUDY    35  32  88 NE3       30.02F
DELTA          LGT RAIN  42  38  86 NE5       30.05F
NUCLA          CLOUDY    52  37  58 E8        30.03S
$$

COZ017>023-064>068-190100-
...SOUTHWEST COLORADO...

CITY           SKY/WX    TMP DP  RH WIND       PRES   REMARKS
DURANGO        PTSUNNY   50  27  40 N8        29.94R
CORTEZ         MOSUNNY   59  27  29 NW15G28   29.97S
PAGOSA SPRINGS CLOUDY    42  30  62 E7        29.96R
TELLURIDE      NOT AVBL
WOLF CREEK PAS LGT SNOW  23  23 100 W5        30.05R WCI  17
$$

COZ009-010-012-014-032>034-037-058>063-190100-
...CENTRAL COLORADO...

CITY           SKY/WX    TMP DP  RH WIND       PRES   REMARKS
ASPEN          LGT SNOW  32  29  88 N6        30.00R FOG     WCI  26
BUENA VISTA    PTSUNNY   38  25  60 CALM      29.91R
COPPER MTN     CLOUDY    25  19  80 W20       29.99R WCI  11
BERTHOUD PASS  SNOW      18   9  68 NW18G32   29.97S VSB 1/4 WCI   2
COTTONWOOD PAS PTSUNNY   36  23  60 NW8G23    29.93S
GUNNISON       CLOUDY    37  28  70 SW15      30.00R
KREMMLING      CLOUDY    41  27  56 NW9       29.96S
LEADVILLE      CLOUDY    29  19  66 NW13G18   29.96R WCI  19
MONARCH PASS   CLOUDY    21  19  93 MISG      30.06R
SALIDA         PTSUNNY   43  26  49 W14       29.97S
SUNLIGHT       SNOW     N/A N/A N/A W6        30.07R VSB<1/4
WILKERSON PASS LGT SNOW  25  23  93 N9        29.98R WCI  15
$$

COZ069>075-190100-
...SAN LUIS VALLEY/SANGRE DE CRISTO MOUNTAINS...

CITY           SKY/WX    TMP DP  RH WIND       PRES   REMARKS
ALAMOSA        CLOUDY    42  28  57 W13       29.91R
LA VETA PASS   CLOUDY    32  25  74 SW6       29.92R WCI  26
SAGUACHE       PTSUNNY   41  25  52 N15G28    29.91S
$$

COZ035-036-038>040-190100-
...NORTHERN COLORADO FRONT RANGE...

CITY           SKY/WX    TMP DP  RH WIND       PRES   REMARKS
DENVER INTL AP PTSUNNY   48  36  63 N15       29.88R
DMNS CITY PARK   N/A     48  30  49 N6G17     29.90R
AURORA         NOT AVBL
FRONT RANGE AP PTSUNNY   46  37  71 N8        29.89R
ERIE MUNI ARPT CLOUDY    49  32  51 N8        29.90R
BOULDER MUN AP CLOUDY    46  34  61 NW9       29.91R
CENTENNIAL     PTSUNNY   44  31  60 NE10      29.89R
BROOMFIELD     PTSUNNY   46  32  57 W13       29.90R
FORT COLLINS   PTSUNNY   48  36  61 NE15      29.91R
LONGMONT       CLOUDY    52  35  52 NW5       29.91R
$$

COZ041-046-047-076>085-087-088-190100-
...PIKES PEAK/PALMER DIVIDE AND SOUTHERN FOOTHILLS...

CITY           SKY/WX    TMP DP  RH WIND       PRES   REMARKS
COLO. SPRINGS  PTSUNNY   45  31  58 S6        29.88R
A. F. ACADEMY  MOSUNNY   46  24  41 N21       29.86R
ELLICOTT       PTSUNNY  N/A N/A N/A N6        29.86R
FALCON         PTSUNNY   45  32  60 N22       29.89R
FORT CARSON    PTSUNNY   44  33  64 CALM      29.86R
LIMON          PTSUNNY   49  33  54 NW13      29.84R
MONUMENT HILL  FLURRIES  36  32  87 NE5       29.89
TRINIDAD       CLOUDY    49  25  39 N15       29.85R
$$

COZ042>045-048>051-090-091-190100-
...NORTHEAST COLORADO...

CITY           SKY/WX    TMP DP  RH WIND       PRES   REMARKS
GREELEY ARPT   PTSUNNY   48  37  66 N9        29.89S
AKRON          LGT RAIN  44  40  85 N12       29.86R
BURLINGTON     PTSUNNY   50  40  68 NW18      29.81R
WRAY           PTSUNNY   49  44  82 NW16      29.81F
STERLING       DRIZZLE   46  41  81 NE9       29.87R
HOLYOKE        DRIZZLE   52  45  76 NW10      29.83F
FORT MORGAN    CLOUDY    48  39  72 NE15G22   29.88R
$$

COZ086-089-092>099-190100-
...SOUTHEAST COLORADO...

CITY           SKY/WX    TMP DP  RH WIND       PRES   REMARKS
PUEBLO         PTSUNNY   50  31  48 N6        29.84R
LA JUNTA       CLOUDY    55  28  35 W15       29.81S
LAMAR          CLOUDY    54  31  41 NW13      29.78F
SPRINGFIELD      N/A     52  33  48 CALM      29.81S
$$



USA.gov is the U.S. government's official web portal to all federal, state and local government web resources and services.